Date String (YYYY-MM-DD hh:mm:ss) UTC,Instrument flags,absolute air pressure of the measurement (hPa),sample flow rate (lpm),inlet stack bypass flow (lpm),air temperature of the measurement (°C),ambient temperature measured by the external sensor (°C),aerosol sample conditioner tube jacket temperature (°C),OPC LED temperature (°C),internal box temperature (°C),relative humidity of the measurement (%),span deviation,mass concentration of particles derived from Lorenz-Mie calculation of OPC scattering (μg/m³),mass concentration of particles derived from Lorenz-Mie calculation of OPC scattering (μg/m³),mass concentration of particles derived from Lorenz-Mie calculation of OPC scattering (μg/m³)
DateTimeUTC,F1_M11,P_M11,Q1_M11,Q2_M11,T1_M11,T2_M11,T3_M11,T4_M11,T5_M11,U1_M11,ZSPAN_M11,X2_M11,X0_M11,X1_M11
2024-05-20 10:00:00,SystemResetWarning,0828.3,5.00,000.00,025.7,022.8,000.0,034.4,026.4,023.7,0000.0,0004.41,0017.05,0003.03
2024-05-20 10:01:00,SystemResetWarning,0828.2,5.00,000.00,025.2,021.7,000.0,034.3,025.6,024.4,0000.0,0004.46,0016.59,0003.01
2024-05-20 10:02:00,SystemResetWarning,0828.2,5.01,000.00,025.0,021.9,000.0,034.2,025.6,024.8,0000.0,0004.44,0016.66,0003.01
2024-05-20 10:03:00,SystemResetWarning,0828.2,5.01,000.00,024.9,022.3,000.0,034.0,026.0,025.0,0000.0,0004.44,0017.93,0003.01
2024-05-20 10:04:00,SystemResetWarning,0828.3,4.98,000.00,024.9,022.7,000.0,033.8,026.3,025.0,0000.0,0004.40,0018.33,0003.00
2024-05-20 10:05:00,SystemResetWarning,0828.3,5.00,000.00,024.9,023.0,000.0,033.7,026.4,025.0,0000.0,0004.42,0018.65,0003.01
2024-05-20 10:06:00,SystemResetWarning,0828.3,5.02,000.00,025.0,023.3,000.0,033.7,026.5,025.0,0000.0,0004.47,0017.99,0003.02
2024-05-20 10:07:00,SystemResetWarning,0828.3,5.00,000.00,025.0,023.6,000.0,033.6,026.6,025.0,0000.0,0004.51,0018.27,0003.04
2024-05-20 10:08:00,SystemResetWarning,0828.4,5.00,000.00,025.0,023.8,000.0,033.6,026.7,025.0,0000.0,0004.56,0018.63,0003.06
2024-05-20 10:09:00,SystemResetWarning,0828.4,5.00,000.00,025.0,023.9,000.0,033.5,026.7,024.9,0000.0,0004.54,0018.83,0003.08
2024-05-20 10:10:00,SystemResetWarning,0828.4,4.99,000.00,025.1,024.1,000.0,033.5,026.8,024.9,0000.0,0004.53,0017.78,0003.10
2024-05-20 10:11:00,SystemResetWarning,0828.4,5.00,000.00,025.1,024.2,000.0,033.5,026.8,024.8,0000.0,0004.49,0017.96,0003.11
2024-05-20 10:12:00,SystemResetWarning,0828.4,5.01,000.00,025.1,024.3,000.0,033.5,026.9,024.8,0000.0,0004.46,0017.99,0003.12
2024-05-20 10:13:00,SystemResetWarning,0828.4,5.01,000.00,025.1,024.4,000.0,033.5,027.0,024.8,0000.0,0004.47,0018.36,0003.12
2024-05-20 10:14:00,SystemResetWarning,0828.4,5.00,000.00,025.2,024.5,000.0,033.5,027.0,024.8,0000.0,0004.51,0017.01,0003.12
2024-05-20 10:15:00,SystemResetWarning,0828.4,5.00,000.00,025.2,024.5,000.0,033.5,027.1,024.7,0000.0,0004.56,0017.04,0003.13
2024-05-20 10:16:00,SystemResetWarning,0828.4,5.00,000.00,025.2,024.6,000.0,033.5,027.1,024.7,0000.0,0004.55,0016.37,0003.13
2024-05-20 10:17:00,SystemResetWarning,0828.4,5.00,000.00,025.3,024.6,000.0,033.5,027.1,024.7,0000.0,0004.60,0016.19,0003.13
2024-05-20 10:18:00,SystemResetWarning,0828.4,5.00,000.00,025.3,024.7,000.0,033.5,027.2,024.6,0000.0,0004.55,0015.36,0003.12
2024-05-20 10:19:00,SystemResetWarning,0828.4,5.00,000.00,025.3,024.7,000.0,033.5,027.2,024.6,0000.0,0004.57,0014.62,0003.14
2024-05-20 10:20:00,SystemResetWarning,0828.4,5.00,000.00,025.4,024.7,000.0,033.6,027.2,024.6,0000.0,0004.56,0014.43,0003.13
2024-05-20 10:21:00,SystemResetWarning,0828.4,4.99,000.00,025.4,024.8,000.0,033.6,027.2,024.5,0000.0,0004.62,0014.42,0003.13
2024-05-20 10:22:00,SystemResetWarning,0828.4,5.01,000.00,025.4,024.8,000.0,033.6,027.2,024.5,0000.0,0004.62,0014.18,0003.13
2024-05-20 10:23:00,SystemResetWarning,0828.4,5.00,000.00,025.4,024.8,000.0,033.6,027.3,024.4,0000.0,0004.66,0013.91,0003.13
2024-05-20 10:24:00,SystemResetWarning,0828.4,5.01,000.00,025.4,024.9,000.0,033.6,027.3,024.3,0000.0,0004.71,0013.35,0003.13
2024-05-20 10:25:00,SystemResetWarning,0828.4,5.00,000.00,025.5,024.9,000.0,033.6,027.3,024.3,0000.0,0004.70,0013.08,0003.12
2024-05-20 10:26:00,SystemResetWarning,0828.4,5.01,000.00,025.5,024.9,000.0,033.6,027.3,024.2,0000.0,0004.67,0013.43,0003.12
2024-05-20 10:27:00,SystemResetWarning,0828.4,5.00,000.00,025.5,024.9,000.0,033.7,027.3,024.2,0000.0,0004.70,0013.28,0003.12
2024-05-20 10:28:00,SystemResetWarning,0828.4,5.00,000.00,025.5,024.9,000.0,033.7,027.4,024.2,0000.0,0004.62,0013.75,0003.13
2024-05-20 10:29:00,SystemResetWarning,0828.4,4.99,000.00,025.6,025.0,000.0,033.7,027.4,024.2,0000.0,0004.65,0014.06,0003.14
2024-05-20 10:30:00,SystemResetWarning,0828.4,4.99,000.00,025.6,025.0,000.0,033.7,027.4,024.2,0000.0,0004.66,0014.19,0003.14
2024-05-20 10:31:00,SystemResetWarning,0828.4,5.01,000.00,025.6,025.0,000.0,033.7,027.4,024.1,0000.0,0004.64,0013.78,0003.15
2024-05-20 10:32:00,SystemResetWarning,0828.4,5.01,000.00,025.6,025.0,000.0,033.7,027.4,024.1,0000.0,0004.67,0013.69,0003.16
2024-05-20 10:33:00,SystemResetWarning,0828.4,5.00,000.00,025.6,025.0,000.0,033.8,027.5,024.1,0000.0,0004.73,0014.47,0003.16
2024-05-20 10:34:00,SystemResetWarning,0828.4,4.99,000.00,025.6,025.0,000.0,033.8,027.5,024.1,0000.0,0004.72,0014.51,0003.16
2024-05-20 10:35:00,SystemResetWarning,0828.4,5.00,000.00,025.7,025.0,000.0,033.8,027.5,024.1,0000.0,0004.68,0014.60,0003.16
2024-05-20 10:36:00,SystemResetWarning,0828.4,5.00,000.00,025.7,025.1,000.0,033.8,027.5,024.1,0000.0,0004.65,0014.97,0003.17
2024-05-20 10:37:00,SystemResetWarning,0828.4,5.01,000.00,025.7,025.1,000.0,033.8,027.5,024.0,0000.0,0004.62,0014.85,0003.17
2024-05-20 10:38:00,SystemResetWarning,0828.4,5.00,000.00,025.7,025.1,000.0,033.8,027.5,024.0,0000.0,0004.58,0014.72,0003.17
2024-05-20 10:39:00,SystemResetWarning,0828.4,5.01,000.00,025.7,025.1,000.0,033.9,027.5,024.0,0000.0,0004.58,0015.14,0003.16
2024-05-20 10:40:00,SystemResetWarning,0828.4,4.99,000.00,025.7,025.1,000.0,033.9,027.5,023.9,0000.0,0004.62,0016.51,0003.16
2024-05-20 10:41:00,SystemResetWarning,0828.5,5.00,000.00,025.7,025.1,000.0,033.9,027.6,023.9,0000.0,0004.61,0016.69,0003.16
2024-05-20 10:42:00,SystemResetWarning,0828.5,4.99,000.00,025.7,025.1,000.0,033.9,027.6,023.9,0000.0,0004.60,0016.84,0003.14
2024-05-20 10:43:00,SystemResetWarning,0828.5,5.00,000.00,025.8,025.1,000.0,033.9,027.6,023.9,0000.0,0004.55,0017.05,0003.13
2024-05-20 10:44:00,SystemResetWarning,0828.5,5.01,000.00,025.8,025.1,000.0,033.9,027.6,023.8,0000.0,0004.52,0018.45,0003.13
2024-05-20 10:45:00,SystemResetWarning,0828.6,5.00,000.00,025.8,025.2,000.0,033.9,027.6,023.8,0000.0,0004.55,0019.98,0003.14
2024-05-20 10:46:00,SystemResetWarning,0828.5,4.99,000.00,025.8,025.2,000.0,034.0,027.6,023.8,0000.0,0004.55,0020.54,0003.13
2024-05-20 10:47:00,SystemResetWarning,0828.5,5.01,000.00,025.8,025.2,000.0,034.0,027.6,023.8,0000.0,0004.54,0020.52,0003.14
2024-05-20 10:48:00,SystemResetWarning,0828.4,5.01,000.00,025.8,025.2,000.0,034.0,027.6,023.8,0000.0,0004.54,0019.79,0003.13
2024-05-20 10:49:00,SystemResetWarning,0828.4,5.01,000.00,025.8,025.2,000.0,034.0,027.7,023.7,0000.0,0004.57,0019.59,0003.13
2024-05-20 10:50:00,SystemResetWarning,0828.4,5.01,000.00,025.8,025.2,000.0,034.0,027.7,023.7,0000.0,0004.61,0018.91,0003.13
2024-05-20 10:51:00,SystemResetWarning,0828.3,4.99,000.00,025.9,025.2,000.0,034.0,027.7,023.7,0000.0,0004.56,0016.92,0003.13
2024-05-20 10:52:00,SystemResetWarning,0828.3,4.99,000.00,025.9,025.2,000.0,034.1,027.7,023.7,0000.0,0004.51,0016.24,0003.14
2024-05-20 10:53:00,SystemResetWarning,0828.4,4.99,000.00,025.9,025.2,000.0,034.1,027.7,023.7,0000.0,0004.50,0016.67,0003.14
2024-05-20 10:54:00,SystemResetWarning,0828.3,5.01,000.00,025.9,025.2,000.0,034.1,027.7,023.7,0000.0,0004.49,0016.69,0003.14
2024-05-20 10:55:00,SystemResetWarning,0828.4,5.01,000.00,025.9,025.3,000.0,034.1,027.7,023.7,0000.0,0004.50,0014.35,0003.15
2024-05-20 10:56:00,SystemResetWarning,0828.4,5.00,000.00,025.9,025.3,000.0,034.1,027.7,023.7,0000.0,0004.45,0013.11,0003.14
2024-05-20 10:57:00,SystemResetWarning,0828.4,5.00,000.00,025.9,025.3,000.0,034.1,027.7,023.6,0000.0,0004.45,0013.35,0003.14
2024-05-20 10:58:00,SystemResetWarning,0828.4,4.99,000.00,025.9,025.3,000.0,034.1,027.7,023.7,0000.0,0004.51,0013.48,0003.14
2024-05-20 10:59:00,SystemResetWarning,0828.4,5.01,000.00,025.9,025.3,000.0,034.1,027.7,023.7,0000.0,0004.57,0014.71,0003.15
